TimePDT,TemperatureF,Dew PointF,Humidity,Sea Level PressureIn,VisibilityMPH,Wind Direction,Wind SpeedMPH,Gust SpeedMPH,PrecipitationIn,Events,Conditions,WindDirDegrees,DateUTC
12:53 AM,43.0,28.0,56,30.18,9.0,West,3.5,-,N/A,,Clear,260,2012-10-06 07:53:00
1:53 AM,42.1,28.0,58,30.19,10.0,West,3.5,-,N/A,,Clear,260,2012-10-06 08:53:00
2:53 AM,39.0,27.0,62,30.18,10.0,West,3.5,-,N/A,,Clear,260,2012-10-06 09:53:00
3:53 AM,42.1,27.0,55,30.17,10.0,Calm,Calm,-,N/A,,Clear,0,2012-10-06 10:53:00
4:53 AM,39.9,27.0,60,30.17,10.0,WNW,4.6,-,N/A,,Clear,290,2012-10-06 11:53:00
5:53 AM,39.0,28.0,65,30.18,10.0,WNW,3.5,-,N/A,,Clear,290,2012-10-06 12:53:00
6:53 AM,36.0,26.1,67,30.18,10.0,Calm,Calm,-,N/A,,Clear,0,2012-10-06 13:53:00
7:08 AM,35.6,26.6,70,30.18,10.0,North,-9999.0,-,N/A,,Clear,0,2012-10-06 14:08:00
7:53 AM,37.9,28.0,68,30.18,10.0,West,3.5,-,N/A,,Clear,280,2012-10-06 14:53:00
8:53 AM,46.9,30.0,52,30.19,10.0,Calm,Calm,-,N/A,,Clear,0,2012-10-06 15:53:00
9:53 AM,60.1,30.9,33,30.18,10.0,Calm,Calm,-,N/A,,Clear,0,2012-10-06 16:53:00
10:53 AM,66.0,25.0,21,30.17,10.0,NNW,3.5,-,N/A,,Clear,340,2012-10-06 17:53:00
11:53 AM,70.0,14.0,12,30.15,10.0,ESE,3.5,-,N/A,,Clear,120,2012-10-06 18:53:00
12:53 PM,73.0,18.0,12,30.14,10.0,ESE,6.9,-,N/A,,Clear,110,2012-10-06 19:53:00
1:53 PM,75.0,17.1,11,30.11,10.0,East,6.9,-,N/A,,Clear,80,2012-10-06 20:53:00
2:53 PM,75.9,12.9,9,30.10,10.0,ENE,11.5,-,N/A,,Clear,60,2012-10-06 21:53:00
3:53 PM,75.9,15.1,10,30.09,10.0,ENE,11.5,-,N/A,,Clear,60,2012-10-06 22:53:00
4:53 PM,75.0,17.1,11,30.07,10.0,East,10.4,-,N/A,,Clear,80,2012-10-06 23:53:00
5:53 PM,70.0,21.0,16,30.06,10.0,ENE,5.8,-,N/A,,Clear,60,2012-10-07 00:53:00
6:53 PM,61.0,21.0,21,30.06,10.0,Calm,Calm,-,N/A,,Clear,0,2012-10-07 01:53:00
7:53 PM,52.0,28.9,41,30.07,10.0,West,3.5,-,N/A,,Clear,280,2012-10-07 02:53:00
9:53 PM,48.9,28.0,44,30.07,10.0,West,3.5,-,N/A,,Clear,260,2012-10-07 04:53:00
10:53 PM,46.9,28.9,50,30.06,10.0,West,4.6,-,N/A,,Clear,270,2012-10-07 05:53:00
11:53 PM,46.0,28.0,50,30.06,10.0,West,3.5,-,N/A,,Clear,270,2012-10-07 06:53:00